Regional Weather Roundup
Issued by NWS

Home | Current Version | Previous Version | Text Only | Print | Product List | Glossary Off
Versions: 1 2 3 4 5 6 7 8 9 10 11 12 13 14 15 16 17 18 19 20 21 22 23 24 25 26 27 28

000
ASUS45 KCYS 181810
RWRWY

WYOMING REGIONAL WEATHER ROUNDUP
NATIONAL WEATHER SERVICE CHEYENNE WY
1200 PM MDT MON SEP 18 2017

NOTE:  "FAIR" INDICATES FEW OR NO CLOUDS BELOW 12,000 FEET
WITH NO SIGNIFICANT WEATHER AND/OR OBSTRUCTIONS TO VISIBILITY.

WYZ001-181900-
YELLOWSTONE NATIONAL PARK

CITY           SKY/WX    TMP DP  RH WIND       PRES   REMARKS
LK YELLOWSTONE   N/A     51  28  41 VRB7      30.01F
6HR MIN TEMP:  28; 6HR MAX TEMP:  52;

W YELLOWSTONE  NOT AVBL

$$
WYZ002>013-054>058-071-098>099-181900-
NORTHERN WYOMING

CITY           SKY/WX    TMP DP  RH WIND       PRES   REMARKS
JACKSON        FAIR      57  35  43 SW10      29.98F
CODY           FAIR      68  30  24 E8        29.85F
GREYBULL       FAIR      58  45  62 CALM      29.84F
6HR MIN TEMP:  38; 6HR MAX TEMP:  58;

WORLAND        FAIR      67  38  34 SE9       29.84F
6HR MIN TEMP:  37; 6HR MAX TEMP:  67;

SHERIDAN       FAIR      69  41  36 N3        29.82F
6HR MIN TEMP:  35; 6HR MAX TEMP:  71;

BUFFALO        FAIR      66  30  26 SE8       29.88S
6HR MIN TEMP:  41; 6HR MAX TEMP:  69;

GILLETTE       FAIR      73  29  19 SW17      29.86F
6HR MIN TEMP:  39; 6HR MAX TEMP:  73;

HULETT         FAIR      72  34  25 SW9G18    29.89F
NEWCASTLE      FAIR      68  34  28 S5        29.92F

$$
WYZ014>020-022>026-101>103-181900-
CENTRAL WYOMING

CITY           SKY/WX    TMP DP  RH WIND       PRES   REMARKS
BIG PINEY      FAIR      54  34  46 S3        30.05F
6HR MIN TEMP:  26; 6HR MAX TEMP:  54;

PINEDALE       FAIR      57  32  38 S12       30.07F
DUBOIS         FAIR      61  23  23 W22G41    29.97F
LANDER           N/A    N/A N/A N/A MISG      29.91F
RIVERTON       FAIR      60  41  49 SE9       29.93F
6HR MIN TEMP:  38; 6HR MAX TEMP:  60;

CASPER         FAIR      69  36  29 SW21G28   29.95F
6HR MIN TEMP:  45; 6HR MAX TEMP:  70;

DOUGLAS        FAIR      74  32  21 VRB5      29.95F
6HR MIN TEMP:  33; 6HR MAX TEMP:  74;


$$
WYZ021-027>030-104>119-181900-
SOUTHERN WYOMING

CITY           SKY/WX    TMP DP  RH WIND       PRES   REMARKS
EVANSTON       FAIR      66  31  27 SW25G32   30.07F
6HR MIN TEMP:  46; 6HR MAX TEMP:  67;

KEMMERER         N/A     64  30  27 SW26G33   30.07F
FORT BRIDGER   FAIR      71  28  20 W25G31    30.09F
ROCK SPRINGS   FAIR      68  29  23 W15G25    30.06F
6HR MIN TEMP:  43; 6HR MAX TEMP:  69;

DIXON          FAIR      69  31  23 W20G26    30.13F
RAWLINS        FAIR      69  32  25 SW24G35   30.08S
6HR MIN TEMP:  42; 6HR MAX TEMP:  69;

SARATOGA       FAIR      68  28  22 MISG      30.11F
LARAMIE        FAIR      67  27  22 W18G29    30.12F
6HR MIN TEMP:  37; 6HR MAX TEMP:  67;

CHEYENNE       FAIR      72  27  18 SW17G26   30.07F
6HR MIN TEMP:  44; 6HR MAX TEMP:  74;

TORRINGTON     FAIR      74  49  41 SE7       29.94F
6HR MIN TEMP:  40; 6HR MAX TEMP:  74;

PINE BLUFFS    FAIR      73  32  21 W10G17    30.03F

$$




USA.gov is the U.S. government's official web portal to all federal, state and local government web resources and services.